DW1549 Fauske NO current weather conditions

sailwx.info

Wind from 065 at 2 knots gusting 7

Air temperature 5.6° C
Dewpoint -2.8° C

Last reported at 2017-Apr-27 09:57 UTC.
Time now 2017-Apr-27 11:03 UTC

Location: N 67°16' E 015°25'.
View on Google Maps.

See reports from other nearby stations

  
Tides and Currents Weather Stations Pressure Air Temp Water Temp Dewpoint Dewpoint Depression Visibility Wind Speed Wind Dir Waves Ship Positions
date/time (UTC)wind fromknots sea level pressurealtimeterstation pressurevisibilityair tempwater tempwave heightnotes
2017-Apr-27 09:57 065 2 gusting 7 5.6
2017-Apr-27 09:47 091 1 gusting 8 5.0
2017-Apr-27 09:17 351 2 gusting 10 5.0
2017-Apr-27 09:07 061 1 gusting 8 4.4
2017-Apr-27 08:57 060 0 gusting 7 4.4
2017-Apr-27 08:37 030 1 gusting 6 3.9
2017-Apr-27 08:27 001 1 gusting 6 3.9
2017-Apr-27 08:17 062 1 gusting 6 3.3
2017-Apr-27 08:07 111 3.3
2017-Apr-27 07:57 111 1 gusting 4 3.3
2017-Apr-27 07:47 097 0 gusting 4 3.9
2017-Apr-27 07:37 097 0 gusting 2 3.3
2017-Apr-27 07:17 090 1 gusting 2 2.8
2017-Apr-27 06:57 082 0 gusting 2 1.7
2017-Apr-27 06:47 069 1 gusting 2 1.1
2017-Apr-27 06:07 047 0 gusting 1 -0.0
2017-Apr-27 05:57 033 -0.6
2017-Apr-27 05:37 030 -1.1
2017-Apr-27 04:57 030 -1.7
2017-Apr-27 04:47 030 -2.2
2017-Apr-27 04:27 030 -2.2
2017-Apr-27 04:07 030 -2.8
2017-Apr-27 03:37 030 -2.8
2017-Apr-27 03:27 030 -2.8
2017-Apr-27 03:17 030 -2.8
2017-Apr-27 03:07 030 -2.8
2017-Apr-27 02:57 030 -2.8
2017-Apr-27 02:17 030 -2.2
2017-Apr-27 01:47 030 -1.7
2017-Apr-27 01:27 030 -1.7
2017-Apr-27 01:17 030 -1.7
2017-Apr-27 00:47 030 -1.1
2017-Apr-27 00:37 030 -1.1
2017-Apr-27 00:27 030 -1.1
2017-Apr-27 00:07 030 -0.6
2017-Apr-26 23:47 030 -0.6
2017-Apr-26 23:37 030 -0.6
2017-Apr-26 23:27 030 -0.6
2017-Apr-26 23:07 030 -0.0
2017-Apr-26 22:47 030 -0.0
2017-Apr-26 22:37 030 -0.0
2017-Apr-26 22:27 030 -0.0
2017-Apr-26 22:07 030 0.6
2017-Apr-26 21:47 030 1.1
2017-Apr-26 21:37 030 1.1
2017-Apr-26 21:27 030 1.1
2017-Apr-26 21:17 030 1.1
2017-Apr-26 21:07 030 1.1
2017-Apr-26 20:57 030 1.1
2017-Apr-26 20:37 030 1.1
2017-Apr-26 20:17 030 1.7
2017-Apr-26 20:07 031 1.7
2017-Apr-26 19:57 033 0 gusting 2 2.2
2017-Apr-26 19:47 034 2.2
2017-Apr-26 19:37 033 0 gusting 2 2.2
2017-Apr-26 19:07 025 2.2
2017-Apr-26 18:37 025 3.3
2017-Apr-26 18:17 025 3.9
2017-Apr-26 18:07 025 3.9
2017-Apr-26 17:47 021 4.4
2017-Apr-26 17:37 022 5.0
2017-Apr-26 17:17 240 4.4
2017-Apr-26 17:07 241 4.4
2017-Apr-26 16:57 242 1 gusting 4 3.9
2017-Apr-26 16:37 253 1 gusting 5 4.4
2017-Apr-26 16:27 268 0 gusting 5 4.4
2017-Apr-26 16:17 251 3 gusting 8 4.4
2017-Apr-26 15:57 256 0 gusting 7 5.6
2017-Apr-26 15:37 166 6.1
2017-Apr-26 15:07 045 7.2
2017-Apr-26 14:57 044 7.2
2017-Apr-26 13:57 201 2 gusting 7 8.3
2017-Apr-26 13:27 266 0 gusting 8 8.3
2017-Apr-26 13:17 259 0 gusting 2 8.3
2017-Apr-26 13:07 247 0 gusting 5 7.8
2017-Apr-26 12:57 237 1 gusting 6 7.8
2017-Apr-26 12:37 190 0 gusting 4 6.7
2017-Apr-26 12:17 185 1 gusting 5 6.7
2017-Apr-26 12:07 183 1 gusting 2 6.7
2017-Apr-26 11:57 182 0 gusting 2 6.7
2017-Apr-26 11:47 182 0 gusting 2 5.6
2017-Apr-26 11:37 182 0 gusting 2 6.1
2017-Apr-26 11:27 181 1 gusting 2 6.7
2017-Apr-26 11:17 179 0 gusting 4 6.7
2017-Apr-26 11:07 178 1 gusting 5 7.2
2017-Apr-26 10:57 175 1 gusting 4 6.7
2017-Apr-26 10:47 172 0 gusting 4 6.7
2017-Apr-26 10:37 168 2 gusting 4 7.2
2017-Apr-26 10:07 143 1 gusting 2 7.2
2017-Apr-26 09:57 132 1 gusting 4 6.7
2017-Apr-26 09:27 096 1 gusting 2 6.1
2017-Apr-26 09:17 092 1 gusting 2 5.6
2017-Apr-26 08:57 040 1 gusting 4 5.0
2017-Apr-26 08:47 044 4.4
2017-Apr-26 08:27 016 2 gusting 5 3.3
2017-Apr-26 08:17 049 1 gusting 5 3.3
2017-Apr-26 08:07 011 1 gusting 5 2.8
2017-Apr-26 07:57 357 2.8
2017-Apr-26 07:47 359 2 gusting 5 2.8
2017-Apr-26 07:37 013 1 gusting 5 2.8
2017-Apr-26 07:27 049 1 gusting 4 2.2
2017-Apr-26 07:17 050 0 gusting 2 1.7
2017-Apr-26 06:57 099 2 gusting 2 2.2
2017-Apr-26 06:37 103 1.7
2017-Apr-26 06:27 103 1.7
2017-Apr-26 06:17 103 1.7
2017-Apr-26 06:07 103 1.1
2017-Apr-26 05:37 031 -0.0
2017-Apr-26 05:17 031 0 gusting 2 -0.6
2017-Apr-26 05:07 031 -0.6
2017-Apr-26 04:57 031 -1.1
2017-Apr-26 04:47 031 -1.1
2017-Apr-26 04:37 031 -0.6
2017-Apr-26 04:27 031 -0.6
2017-Apr-26 04:17 031 -1.1
2017-Apr-26 04:07 031 -1.1
2017-Apr-26 03:57 031 -1.1
2017-Apr-26 03:47 031 -1.1
2017-Apr-26 03:37 031 -1.1
2017-Apr-26 03:27 031 -1.1
2017-Apr-26 03:17 031 -1.1
2017-Apr-26 02:47 031 -1.1
2017-Apr-26 02:37 031 -1.1
2017-Apr-26 02:17 031 -1.1
2017-Apr-26 02:07 031 -1.1
2017-Apr-26 01:47 031 -1.1
2017-Apr-26 01:37 031 -1.1
2017-Apr-26 01:17 031 -0.6
2017-Apr-26 00:57 031 -0.6
2017-Apr-26 00:47 031 -0.6
2017-Apr-26 00:37 031 -0.6
2017-Apr-26 00:27 031 0 gusting 6 -0.6
2017-Apr-26 00:17 016 0 gusting 2 -0.6
2017-Apr-26 00:07 016 -0.6
2017-Apr-25 23:57 016 -0.6
2017-Apr-25 23:47 016 -0.6
2017-Apr-25 23:37 020 0 gusting 5 -0.6
2017-Apr-25 23:27 011 0 gusting 4 -0.6
2017-Apr-25 23:17 011 1 gusting 2 -0.6
2017-Apr-25 23:07 011 -0.6
2017-Apr-25 22:57 011 -0.6
2017-Apr-25 22:47 011 -0.6
2017-Apr-25 22:37 011 -0.6
2017-Apr-25 22:17 011 -0.6
2017-Apr-25 22:07 011 0 gusting 6 -0.6
2017-Apr-25 21:47 354 -0.6
2017-Apr-25 21:37 354 -0.6
2017-Apr-25 21:27 358 -0.6
2017-Apr-25 21:17 358 1 gusting 5 -0.6
2017-Apr-25 21:07 002 2 gusting 7 -1.1
2017-Apr-25 20:57 078 -1.1
2017-Apr-25 20:47 078 -0.6
2017-Apr-25 20:37 078 -0.0
2017-Apr-25 20:27 078 -0.0
2017-Apr-25 19:37 097 0 gusting 2 0.6
2017-Apr-25 19:27 107 0 gusting 2 1.1
2017-Apr-25 19:17 114 0 gusting 2 1.1
2017-Apr-25 19:07 120 1.7
2017-Apr-25 18:57 120 2.2
2017-Apr-25 18:47 120 2.2
2017-Apr-25 18:37 120 2.2
2017-Apr-25 18:27 120 2.8
2017-Apr-25 18:17 120 2.8
2017-Apr-25 18:07 120 1 gusting 7 2.8
2017-Apr-25 17:57 118 3 gusting 7 3.3
2017-Apr-25 17:47 126 5 gusting 8 3.3
2017-Apr-25 17:37 130 4 gusting 7 3.9
2017-Apr-25 17:27 130 6 gusting 10 3.9
2017-Apr-25 17:07 128 4 gusting 10 4.4
2017-Apr-25 16:57 122 5 gusting 8 5.0
2017-Apr-25 16:37 113 5 gusting 12 5.0
2017-Apr-25 16:07 114 5 gusting 12 5.6
2017-Apr-25 15:57 122 6 gusting 10 6.1
2017-Apr-25 15:47 125 5 gusting 10 5.6
2017-Apr-25 15:27 125 5 gusting 10 5.6
2017-Apr-25 15:17 134 6 gusting 11 6.1
2017-Apr-25 15:07 125 10 gusting 13 6.1
2017-Apr-25 14:47 129 6 gusting 13 6.7
2017-Apr-25 14:37 130 6 gusting 12 6.7
2017-Apr-25 14:27 112 6 gusting 13 6.7
2017-Apr-25 14:17 112 9 gusting 12 6.7
2017-Apr-25 14:07 129 7 gusting 13 6.7
2017-Apr-25 13:47 121 6 gusting 11 6.7
2017-Apr-25 13:37 132 6 gusting 12 6.7
2017-Apr-25 13:27 117 9 gusting 12 6.7
2017-Apr-25 13:17 124 7 gusting 12 6.7
2017-Apr-25 13:07 126 11 gusting 13 6.7
2017-Apr-25 12:57 132 6 gusting 13 6.7
2017-Apr-25 12:37 122 7 gusting 12 6.7
2017-Apr-25 12:17 108 5 gusting 11 6.7
2017-Apr-25 12:07 126 4 gusting 11 6.7
2017-Apr-25 11:57 121 4 gusting 12 6.7
2017-Apr-25 11:47 127 5 gusting 11 6.7
2017-Apr-25 11:37 120 7 gusting 12 6.1
2017-Apr-25 11:07 132 8 gusting 13 6.1